Regional Weather Roundup
Issued by NWS

Home | Current Version | Previous Version | Graphics & Text | Print | Product List | Glossary On
Versions: 1 2 3 4 5 6 7 8 9 10 11 12 13 14 15 16 17 18 19 20 21 22 23 24 25 26 27 28 29 30 31 32 33 34 35 36 37 38 39 40 41 42 43 44 45 46 47 48 49 50
000
ASUS45 KCYS 300310
RWRWY

WYOMING REGIONAL WEATHER ROUNDUP
NATIONAL WEATHER SERVICE CHEYENNE WY
900 PM MDT MON SEP 29 2014

NOTE:  "FAIR" INDICATES FEW OR NO CLOUDS BELOW 12,000 FEET
WITH NO SIGNIFICANT WEATHER AND/OR OBSTRUCTIONS TO VISIBILITY.

WYZ001-300400-
YELLOWSTONE NATIONAL PARK

CITY           SKY/WX    TMP DP  RH WIND       PRES   REMARKS
LK YELLOWSTONE   N/A     40  35  83 CALM      30.02F
W YELLOWSTONE  NOT AVBL

$$
WYZ002>013-054>058-071-098>099-300400-
NORTHERN WYOMING

CITY           SKY/WX    TMP DP  RH WIND       PRES   REMARKS
JACKSON        CLOUDY    45  39  81 SW5       30.00S
CODY           PTCLDY    54  39  58 W9        29.86F
GREYBULL       MOCLDY    56  48  74 NW12      29.80F
WORLAND        CLOUDY    57  46  66 N7        29.80F
SHERIDAN       CLOUDY    52  48  86 NW8       29.81F
BUFFALO        CLOUDY    53  47  79 NW9       29.84S
GILLETTE       CLOUDY    52  48  86 SE15      29.84F
HULETT         FAIR      52  50  93 E3        29.87
NEWCASTLE      FAIR      52  50  93 SE6       29.87

$$
WYZ014>020-022>026-101>103-300400-
CENTRAL WYOMING

CITY           SKY/WX    TMP DP  RH WIND       PRES   REMARKS
BIG PINEY      MOCLDY    45  37  73 N9        30.02R
PINEDALE       MOCLDY    41  37  87 NW8       30.01S
DUBOIS         CLOUDY    43  34  70 W12       29.97F
LANDER         PTCLDY    51  39  63 W7        29.87S
RIVERTON       PTCLDY    52  38  58 NW16      29.88S
CASPER         CLOUDY    52  45  77 W5        29.85F
DOUGLAS        CLOUDY    54  45  71 E6        29.87R

$$
WYZ021-027>030-104>119-300400-
SOUTHERN WYOMING

CITY           SKY/WX    TMP DP  RH WIND       PRES   REMARKS
EVANSTON       MOCLDY    43  37  79 SW12      30.04S
KEMMERER       PTCLDY    41  37  87 NW8       30.03S
FORT BRIDGER   MOCLDY    46  41  84 SW8       30.06S
ROCK SPRINGS   MOCLDY    46  39  76 W10       29.99R
DIXON          CLOUDY    49  41  72 SW9       30.00S
RAWLINS        CLOUDY    47  38  71 SW12      29.94F
SARATOGA         N/A     45  39  81 W6        29.96S
LARAMIE        CLOUDY    41  39  93 W8        29.93S
CHEYENNE       LGT RAIN  45  41  86 N15G23    29.87F
TORRINGTON     RAIN      52  50  93 NW10      29.81F FOG
PINE BLUFFS    LGT RAIN  48  46  93 NW22G28   29.83F

$$



USA.gov is the U.S. government's official web portal to all federal, state and local government web resources and services.